Temperature
19 19 19 19 18 18 18 18 18 18 18 18 18 18 18 18 18 18 18 18 18 18 17 17 17 17 17 17 17 17 17 16 16 16 16 16 16 16 16 16 16 16 16
19 19 19 19 18 18 18 18 18 18 18 18 18 18 18 18 18 18 18 18 18 17 17 17 17 17 17 17 17 17 17 16 16 16 16 16 16 16 16 15 15 15 15
19 19 19 18 18 18 18 18 18 18 18 18 18 17 17 17 17 17 17 17 17 17 17 17 17 17 17 17 17 17 17 16 16 16 16 16 16 15 15 15 15 15 15
19 19 18 18 18 18 18 17 17 17 17 17 17 17 17 17 17 17 17 17 17 17 17 17 17 17 17 17 17 17 16 16 16 16 16 15 15 15 15 15 15 15 15
19 18 18 18 18 17 17 17 17 17 17 17 17 17 17 17 17 17 17 17 17 17 17 17 17 17 16 16 16 16 16 16 16 15 15 15 15 15 15 15 14 14 14
18 18 18 18 17 17 17 17 17 17 17 17 17 17 17 17 17 17 17 17 17 17 17 16 16 16 16 16 16 16 16 16 15 15 15 15 15 15 14 14 14 14 14
18 18 18 17 17 17 17 17 17 17 17 17 17 16 16 16 16 16 16 16 16 16 16 16 16 16 16 16 16 16 15 15 15 15 15 15 15 14 14 14 14 14 14
18 18 17 17 17 17 17 17 16 16 16 16 16 16 16 16 16 16 16 16 16 16 16 16 15 15 15 15 15 15 15 15 15 14 14 14 14 14 14 14 14 13 13
17 17 17 17 17 17 16 16 16 16 16 16 16 16 16 16 16 15 15 15 15 15 15 15 15 15 15 15 15 15 15 14 14 14 14 14 14 14 14 13 13 13 13
17 17 17 17 16 16 16 16 16 16 16 16 16 16 16 15 15 15 15 15 15 15 15 15 15 15 14 14 14 14 14 14 14 14 14 14 13 13 13 13 13 13 13
17 17 16 16 16 16 16 16 15 15 15 15 15 15 15 15 15 15 15 15 15 15 14 14 14 14 14 14 14 14 14 14 14 14 13 13 13 13 13 13 13 13 13
16 16 16 16 16 15 15 15 15 15 15 15 15 15 15 15 14 14 14 14 14 14 14 14 14 14 14 14 14 14 13 13 13 13 13 13 13 13 13 12 12 12 12
16 16 16 15 15 15 15 15 15 15 15 15 14 14 14 14 14 14 14 14 14 14 13 13 13 13 13 13 13 13 13 13 13 13 13 13 13 12 12 12 12 12 12
15 15 15 15 15 15 15 14 14 14 14 14 14 14 14 14 14 14 14 14 13 13 13 13 13 13 13 13 13 13 13 12 12 12 12 12 12 12 12 12 12 12 12
15 15 14 14 14 14 14 14 14 14 14 14 14 14 14 14 14 14 13 13 13 13 13 13 12 12 12 12 12 12 12 12 12 12 12 12 11 11 11 11 11 11 11
14 14 14 14 14 14 14 14 13 13 13 13 13 13 13 13 13 13 13 13 13 13 12 12 12 12 12 12 11 11 11 11 11 11 11 11 11 11 11 11 11 11 11
14 14 14 14 14 13 13 13 13 13 13 13 13 13 13 13 13 13 13 12 12 12 12 12 12 11 11 11 11 11 11 11 11 11 11 11 10 10 10 10 10 10 10
14 14 14 14 13 13 13 13 13 13 13 13 13 13 13 13 13 12 12 12 12 12 12 11 11 11 11 11 11 11 10 10 10 10 10 10 10 10 10 10 10 10 10
13 13 13 13 13 13 13 13 13 13 13 13 13 13 12 12 12 12 12 12 12 11 11 11 11 11 11 10 10 10 10 10 10 10 10 10 10 9 9 9 9 9 9
13 13 13 13 13 13 13 13 12 12 12 12 12 12 12 12 12 11 11 11 11 11 11 11 10 10 10 10 10 10 10 10 10 9 9 9 9 9 9 9 9 9 9
13 13 13 13 13 13 12 12 12 12 12 12 12 12 12 12 11 11 11 11 11 10 10 10 10 10 10 10 10 10 9 9 9 9 9 9 9 9 9 9 9 9 9
13 13 12 12 12 12 12 12 12 12 12 12 11 11 11 11 11 11 11 10 10 10 10 10 10 10 9 9 9 9 9 9 9 9 9 9 9 9 9 9 9 8 8
12 12 12 12 12 12 12 12 12 11 11 11 11 11 11 11 11 10 10 10 10 10 10 10 10 9 9 9 9 9 9 9 9 9 8 8 8 8 8 8 8 8 8
12 12 12 12 12 12 12 12 11 11 11 11 11 11 11 11 10 10 10 10 10 10 10 10 9 9 9 9 9 9 8 8 8 8 8 8 8 8 8 8 8 8 8
11 11 11 11 11 11 11 11 11 11 11 11 11 10 10 10 10 10 10 10 9 9 9 9 9 9 9 9 8 8 8 8 8 8 8 8 8 8 8 7 7 7 7
11 11 11 11 11 11 11 11 11 11 11 10 10 10 10 10 10 10 9 9 9 9 9 9 9 8 8 8 8 8 8 8 8 8 8 7 7 7 7 7 7 7 7
Wind_Speed
6 6 5 4 5 4 5 6 6 5 5 5 5 5 4 4 4 4 5 4 5 5 4 4 5 4 3 3 3 3 3 3 4 4 2 2 2 2 2 3 5 5 5
7 6 6 5 4 5 6 6 5 6 5 6 5 5 5 5 5 5 6 5 5 5 5 4 5 4 4 3 3 4 4 4 4 4 3 1 2 2 2 2 3 4 4
6 6 5 5 5 5 6 5 5 5 6 5 5 5 5 5 5 5 6 5 5 6 5 5 5 4 4 4 4 4 4 3 3 4 3 2 1 1 1 1 1 1 3
6 5 6 6 6 5 5 5 4 5 5 5 5 5 5 5 5 5 5 4 4 5 4 5 5 5 6 5 5 5 4 3 3 3 2 2 1 1 1 1 1 1 1
6 5 5 5 4 3 3 3 4 4 5 4 4 4 4 4 4 4 5 5 4 3 4 4 4 5 6 5 4 4 4 3 3 3 2 1 1 1 2 2 1 1 2
5 5 4 3 3 3 4 3 3 3 4 3 3 4 4 4 4 4 4 4 4 4 4 4 4 4 5 6 6 6 6 5 5 4 3 3 3 3 2 2 2 1 2
4 4 3 3 3 3 3 3 3 4 3 3 3 3 4 4 4 4 4 3 3 4 4 4 3 3 4 4 4 4 5 5 6 6 5 5 4 5 4 3 3 3 4
3 2 2 3 3 3 3 3 4 3 3 3 3 3 3 4 4 4 3 2 2 3 3 4 4 3 2 2 2 2 3 4 6 5 6 6 5 5 5 5 5 3 2
3 3 3 3 3 3 4 4 3 3 2 3 3 3 3 4 3 3 2 2 2 3 3 3 3 3 3 2 3 2 2 3 4 5 5 5 5 5 4 3 2 2 1
3 3 3 2 3 4 4 4 3 2 3 2 2 3 3 3 3 3 3 2 2 3 3 2 3 3 3 3 3 3 3 3 2 1 1 2 2 3 5 5 6 4 2
2 2 2 2 2 2 2 2 2 2 1 1 2 2 2 3 2 2 4 3 3 2 2 2 2 2 3 3 3 4 5 3 1 1 1 1 1 1 2 4 5 5 4
1 1 1 1 2 1 1 1 1 2 2 2 2 2 2 2 2 2 3 3 3 3 2 2 2 2 2 3 3 3 3 2 1 1 1 2 2 2 3 3 5 5 5
2 2 1 1 1 2 2 2 1 1 2 2 2 2 2 2 1 1 2 2 2 2 2 2 2 1 1 1 1 1 1 1 1 1 2 3 3 3 1 1 1 0 1
2 2 2 1 1 1 1 2 2 2 2 1 2 2 2 1 1 1 1 1 1 1 0 0 1 1 1 1 1 1 0 1 1 2 2 2 1 0 0 1 1 0 0
1 1 1 2 2 1 1 1 2 3 4 4 3 3 2 2 3 3 2 1 1 2 1 1 1 1 2 2 2 1 1 1 1 0 1 1 1 1 1 0 1 1 1
1 0 1 2 2 2 1 1 2 1 2 3 3 3 2 3 2 1 1 2 1 2 3 2 1 1 1 0 0 1 1 0 0 0 0 0 0 1 1 1 1 1 1
0 1 1 1 2 2 2 2 1 3 3 2 0 1 2 2 2 1 1 1 2 4 3 2 1 1 1 1 1 1 1 1 0 0 0 0 0 0 0 0 0 0 0
0 0 0 1 2 2 2 2 2 2 0 2 2 1 1 1 1 1 2 4 2 2 2 2 2 2 1 1 1 1 1 0 0 1 0 0 0 0 0 0 0 0 1
0 0 0 1 1 1 1 1 1 1 1 0 1 2 1 1 2 2 3 2 2 2 1 1 1 1 1 1 1 1 1 1 1 0 0 0 0 0 0 1 1 1 1
1 1 1 1 0 0 1 1 1 1 1 1 1 1 1 2 1 1 1 1 1 1 1 2 1 1 1 1 1 1 1 1 1 0 0 0 0 0 1 1 1 1 2
1 2 1 1 1 1 1 1 2 1 1 1 2 2 4 3 2 1 1 1 2 2 2 2 1 1 1 1 1 1 1 1 1 1 1 1 1 1 1 2 2 2 2
1 1 1 1 1 1 1 1 1 1 1 1 1 1 3 2 2 1 1 1 1 1 2 2 1 1 1 2 2 2 2 2 1 1 2 2 1 2 2 2 2 2 2
1 1 1 1 1 2 1 1 1 1 1 1 1 1 2 1 1 1 1 1 1 1 1 1 1 0 1 0 1 2 2 3 3 3 2 2 2 2 2 2 3 3 3
1 1 2 2 2 2 2 2 2 2 2 1 2 2 2 2 2 2 1 1 1 1 0 0 1 1 1 1 1 1 1 2 2 2 2 2 3 3 3 3 3 4 4
1 1 1 1 1 2 2 2 2 2 2 2 2 1 1 2 2 2 1 1 1 1 1 0 1 1 1 1 1 1 0 0 1 1 2 2 3 3 3 3 3 3 3
1 1 1 1 1 1 1 1 1 2 2 2 1 1 1 2 2 2 1 1 1 1 1 1 1 1 1 1 1 0 1 1 2 2 1 2 2 2 2 2 3 3 3
Wind_Direction
195 198 203 209 212 217 225 230 230 232 228 229 227 228 228 226 229 226 229 224 224 236 233 221 232 233 231 225 209 203 203 190 220 265 258 245 221 224 222 213 219 213 225
195 194 201 207 212 218 229 235 232 233 234 232 228 225 227 230 226 225 232 230 228 236 237 230 236 235 232 228 215 215 219 207 200 238 265 249 230 214 210 223 224 223 220
188 192 203 211 215 224 236 240 237 237 240 236 225 227 233 235 230 228 228 228 230 236 232 227 234 223 230 227 215 217 223 223 204 210 244 244 251 219 168 246 235 245 224
181 190 203 216 222 230 237 239 239 238 239 239 233 230 225 230 233 230 225 222 228 239 234 229 229 220 227 226 224 218 217 220 218 212 226 240 256 253 151 227 304 306 263
178 188 204 213 216 222 232 240 242 240 241 237 233 238 232 230 235 226 222 222 220 234 242 239 232 218 221 222 223 214 208 211 210 213 223 231 250 236 229 221 231 277 285
177 193 203 204 211 221 231 238 240 245 246 239 238 240 242 248 248 229 218 221 220 220 231 243 244 242 233 229 223 209 195 197 202 206 222 221 236 233 222 212 197 209 270
180 192 192 197 211 227 232 238 241 243 238 243 247 239 242 244 240 231 220 212 220 222 223 228 246 256 238 236 226 210 212 213 204 204 210 223 222 222 205 210 199 203 228
180 202 210 208 217 225 230 240 243 236 233 235 245 242 243 256 245 228 218 210 228 233 222 214 215 236 239 207 199 203 229 232 220 210 209 220 223 216 203 200 201 204 257
188 215 222 213 218 217 224 236 236 233 235 236 241 239 239 258 252 221 202 203 234 252 246 228 213 215 224 183 170 194 255 276 258 233 222 229 225 212 192 159 159 163 243
209 222 222 208 218 219 223 227 225 218 228 232 250 250 239 245 251 221 182 181 223 252 260 250 222 205 202 175 175 189 232 262 278 313 297 288 247 220 195 182 184 185 198
205 199 198 183 218 221 220 223 224 219 215 222 245 269 263 257 251 212 181 182 206 227 239 256 257 224 212 213 205 204 225 239 234 224 256 275 282 250 228 208 195 187 191
141 173 215 188 226 242 202 213 216 198 195 220 235 276 280 268 236 228 194 185 177 181 216 242 258 258 250 243 233 224 218 217 197 202 237 251 246 247 245 230 213 204 204
156 189 213 198 229 224 199 198 212 199 193 214 218 248 276 284 272 263 190 186 174 171 203 241 267 275 287 275 281 247 201 166 168 208 242 251 244 236 245 280 311 221 267
174 183 166 169 207 197 202 199 187 200 199 204 228 241 256 265 265 274 255 221 195 151 144 302 307 342 33 36 23 29 77 168 169 205 242 263 287 293 189 193 206 200 27
149 166 158 180 195 188 190 218 213 221 204 194 214 210 201 232 247 218 196 210 204 192 143 92 64 50 37 23 23 12 21 70 83 287 264 279 283 288 295 238 179 149 159
95 154 182 182 188 191 188 321 341 266 234 202 193 179 200 202 215 216 231 222 205 142 115 116 132 127 149 167 2 346 352 354 259 229 272 311 280 271 301 317 160 158 189
153 193 179 174 180 194 203 204 276 346 15 25 122 167 173 178 174 179 190 105 100 123 120 136 149 172 194 201 189 206 246 287 300 98 98 278 248 271 135 35 23 56 296
345 70 150 194 198 202 210 216 201 188 338 351 356 22 176 179 174 148 114 92 81 95 146 157 176 189 190 191 206 227 233 265 52 55 46 4 105 106 92 292 291 299 275
19 237 201 205 205 207 196 178 157 163 165 206 23 21 56 84 72 80 108 122 150 172 175 178 189 190 195 207 220 212 180 157 132 115 94 37 22 87 310 291 283 295 271
314 267 207 205 195 170 176 164 163 166 175 187 184 172 129 100 90 61 63 134 159 177 188 198 210 209 201 213 220 190 144 133 139 157 250 287 289 226 249 269 270 267 259
277 288 286 237 198 204 218 214 199 175 171 193 210 198 167 160 175 193 209 221 207 206 202 201 205 199 187 187 189 190 190 199 201 205 219 257 274 262 256 250 258 265 273
233 247 247 222 204 195 211 215 184 169 170 174 196 178 183 168 177 192 205 217 218 200 190 181 180 193 202 184 184 189 201 214 223 226 229 236 240 250 257 261 269 269 268
245 253 255 255 240 229 215 212 191 185 177 180 179 167 167 169 166 168 186 197 177 152 135 144 162 222 294 169 171 185 202 221 228 220 223 243 256 259 262 267 268 269 267
260 249 243 244 235 228 221 218 209 196 180 181 172 168 177 182 177 176 179 179 156 144 133 155 191 208 229 241 196 192 214 240 237 225 222 234 246 254 255 258 258 259 257
281 256 243 229 210 214 217 215 210 195 184 184 179 177 185 180 181 186 181 175 163 157 179 238 260 250 206 208 195 197 232 220 240 240 248 250 249 249 253 260 262 266 262
265 256 246 212 168 163 166 172 171 159 161 170 174 178 178 178 188 197 193 182 188 198 225 240 201 176 179 205 231 283 283 283 290 287 260 247 253 261 270 269 271 263 257
Height
1518 1519 1520 1520 1521 1522 1522 1522 1523 1523 1524 1524 1524 1525 1525 1525 1525 1525 1525 1525 1525 1524 1524 1525 1524 1525 1525 1525 1525 1524 1524 1524 1523 1522 1523 1523 1523 1522 1522 1522 1522 1522 1521
1515 1516 1516 1517 1518 1518 1518 1518 1519 1519 1520 1520 1521 1521 1521 1521 1522 1522 1522 1522 1521 1521 1521 1521 1521 1521 1521 1521 1521 1521 1521 1520 1520 1519 1519 1520 1520 1519 1519 1519 1518 1518 1518
1512 1512 1513 1513 1514 1514 1514 1514 1515 1515 1515 1516 1516 1517 1517 1517 1518 1518 1518 1518 1518 1517 1517 1517 1517 1517 1516 1517 1517 1517 1517 1517 1517 1516 1516 1516 1516 1516 1516 1515 1515 1515 1515
1509 1509 1509 1510 1510 1511 1510 1510 1510 1511 1511 1511 1512 1512 1512 1513 1513 1514 1514 1514 1514 1514 1513 1513 1513 1513 1513 1513 1513 1513 1513 1513 1513 1513 1512 1512 1512 1512 1512 1512 1511 1511 1511
1505 1506 1506 1507 1507 1507 1507 1506 1507 1507 1507 1507 1508 1508 1508 1508 1509 1509 1509 1509 1509 1509 1509 1509 1509 1509 1509 1509 1509 1509 1509 1509 1509 1509 1509 1508 1508 1508 1508 1508 1508 1508 1508
1502 1502 1503 1503 1503 1503 1503 1503 1503 1503 1503 1503 1503 1504 1504 1505 1505 1505 1505 1505 1505 1505 1505 1505 1505 1505 1506 1506 1505 1505 1506 1506 1505 1505 1505 1504 1504 1505 1504 1504 1504 1504 1503
1499 1500 1500 1500 1500 1499 1499 1499 1499 1499 1499 1499 1500 1500 1500 1501 1501 1501 1501 1501 1501 1501 1501 1501 1501 1502 1502 1502 1502 1502 1502 1502 1502 1502 1501 1501 1501 1501 1500 1500 1500 1500 1500
1496 1497 1497 1497 1497 1496 1496 1496 1496 1496 1496 1496 1496 1497 1497 1497 1497 1498 1498 1498 1498 1497 1497 1497 1498 1498 1498 1498 1498 1497 1498 1498 1498 1498 1498 1498 1498 1498 1497 1497 1497 1497 1497
1492 1493 1494 1493 1493 1493 1493 1493 1493 1493 1493 1493 1493 1494 1494 1493 1494 1494 1494 1494 1494 1494 1494 1494 1494 1495 1495 1495 1495 1494 1494 1494 1495 1495 1494 1494 1494 1494 1494 1494 1493 1493 1493
1490 1490 1491 1490 1490 1490 1490 1490 1490 1490 1490 1490 1490 1491 1490 1490 1490 1490 1490 1490 1490 1490 1490 1490 1491 1491 1492 1492 1492 1491 1491 1491 1491 1491 1491 1491 1490 1490 1490 1490 1490 1490 1489
1487 1487 1488 1488 1487 1487 1487 1487 1488 1488 1488 1488 1488 1488 1487 1487 1487 1487 1487 1486 1486 1486 1487 1487 1487 1488 1488 1489 1489 1489 1488 1488 1488 1488 1487 1487 1487 1487 1487 1487 1487 1486 1486
1484 1485 1484 1484 1485 1485 1485 1485 1485 1485 1485 1484 1485 1484 1484 1484 1484 1483 1483 1483 1483 1483 1483 1483 1484 1485 1485 1486 1486 1486 1486 1485 1485 1484 1484 1484 1483 1483 1483 1484 1483 1483 1483
1483 1483 1482 1482 1483 1483 1483 1483 1483 1483 1482 1482 1482 1481 1481 1481 1481 1481 1480 1480 1480 1480 1480 1481 1482 1482 1483 1483 1483 1483 1483 1483 1482 1481 1481 1481 1480 1480 1480 1481 1480 1480 1481
1481 1481 1481 1481 1481 1481 1481 1481 1481 1480 1480 1479 1479 1479 1478 1479 1478 1478 1478 1477 1477 1477 1478 1479 1480 1480 1480 1480 1480 1480 1480 1480 1480 1479 1479 1478 1478 1477 1477 1478 1478 1478 1478
1480 1479 1479 1479 1480 1479 1479 1479 1478 1478 1478 1477 1477 1476 1476 1476 1476 1476 1475 1475 1475 1475 1476 1476 1477 1477 1477 1477 1477 1477 1477 1477 1477 1477 1477 1476 1476 1476 1475 1475 1475 1476 1476
1478 1478 1478 1478 1478 1478 1477 1477 1477 1477 1476 1476 1475 1475 1474 1475 1474 1474 1474 1474 1474 1474 1474 1474 1474 1475 1475 1475 1475 1475 1475 1475 1475 1475 1475 1474 1474 1473 1473 1473 1473 1473 1473
1477 1477 1477 1477 1477 1476 1476 1475 1474 1474 1474 1474 1474 1474 1473 1473 1473 1473 1472 1473 1473 1473 1473 1473 1473 1473 1473 1473 1473 1473 1473 1473 1473 1473 1473 1473 1472 1472 1472 1471 1471 1471 1471
1477 1476 1476 1476 1475 1475 1474 1474 1473 1472 1472 1471 1472 1472 1472 1471 1471 1471 1471 1471 1471 1471 1471 1472 1472 1472 1472 1472 1472 1472 1472 1472 1472 1472 1472 1471 1471 1470 1470 1470 1470 1469 1469
1476 1475 1475 1475 1474 1473 1473 1472 1472 1471 1471 1470 1470 1470 1471 1470 1470 1470 1470 1470 1469 1470 1470 1470 1470 1470 1470 1470 1470 1470 1470 1470 1470 1470 1470 1470 1470 1469 1469 1469 1468 1468 1468
1475 1474 1474 1473 1473 1472 1472 1471 1470 1470 1469 1469 1469 1469 1469 1469 1469 1469 1468 1468 1468 1469 1469 1469 1469 1469 1469 1469 1469 1469 1469 1469 1469 1469 1469 1468 1468 1468 1468 1467 1467 1466 1466
1474 1473 1473 1472 1472 1471 1471 1470 1469 1469 1468 1468 1468 1468 1468 1468 1468 1468 1468 1468 1467 1467 1467 1468 1467 1467 1467 1467 1467 1467 1467 1467 1467 1467 1467 1467 1467 1466 1466 1465 1465 1464 1464
1472 1472 1471 1471 1471 1470 1470 1469 1468 1467 1467 1466 1467 1467 1467 1467 1467 1467 1467 1467 1466 1466 1466 1466 1466 1466 1465 1465 1465 1465 1465 1465 1465 1465 1465 1465 1465 1464 1463 1463 1462 1462 1461
1471 1470 1470 1469 1469 1468 1468 1467 1466 1466 1465 1465 1465 1465 1465 1465 1466 1466 1466 1466 1466 1465 1465 1464 1464 1463 1463 1463 1463 1463 1463 1462 1462 1462 1462 1462 1461 1461 1460 1460 1459 1458 1458
1468 1468 1467 1467 1466 1466 1465 1465 1464 1464 1464 1464 1464 1464 1464 1464 1464 1464 1464 1464 1464 1464 1463 1462 1462 1462 1461 1461 1461 1460 1460 1460 1460 1459 1459 1458 1458 1457 1457 1456 1455 1455 1455
1466 1465 1464 1464 1463 1463 1462 1462 1462 1463 1463 1463 1463 1463 1463 1463 1463 1463 1463 1463 1462 1462 1461 1461 1460 1460 1459 1459 1458 1458 1457 1457 1457 1456 1455 1454 1454 1453 1453 1452 1452 1451 1451
1463 1463 1462 1461 1461 1460 1460 1460 1460 1460 1461 1461 1461 1462 1462 1461 1461 1460 1460 1460 1460 1460 1459 1459 1458 1457 1456 1456 1455 1455 1454 1454 1453 1452 1452 1451 1450 1449 1449 1448 1448 1447 1447